EW6193 Weather Reports


time (UTC)temp
C
wind
direction
speed
KPH
gust
KPH
rain 1hr
cm
rain 24hr
cm
rain mn
cm
humidity
%
barometer
mb
20260510043003 12 65 6.4 17.7 0.00 0.00 0.00 80 999.7
20260510041600 12 91 11.3 19.3 0.00 0.00 0.00 80 999.3
20260510040110 13 74 11.3 20.9 0.00 0.00 0.00 77 998.7
20260510034555 14 50 4.8 17.7 0.00 0.00 0.00 76 998.5
20260510033053 14 3 11.3 20.9 0.00 0.00 0.00 74 997.7
20260510031554 15 65 9.7 14.5 0.00 0.00 0.00 72 997.2
20260510030044 17 18 8.0 19.3 0.00 0.00 0.00 66 996.9
20260510024542 19 137 4.8 11.3 0.00 0.00 0.00 49 996.6
20260510023038 20 227 3.2 19.3 0.00 0.00 0.00 49 995.9
20260510021539 20 247 4.8 19.3 0.00 0.00 0.00 49 995.3
20260510020034 20 241 9.7 19.3 0.00 0.00 0.00 48 995.1
20260510014533 20 214 11.3 20.9 0.00 0.00 0.00 48 995.0
20260510013030 20 245 9.7 29.0 0.00 0.00 0.00 50 995.2
20260510011530 19 234 9.7 25.7 0.00 0.00 0.00 49 995.3
20260510010023 19 238 12.9 27.4 0.00 0.00 0.00 50 995.0
20260510004520 19 215 8.0 22.5 0.00 0.00 0.00 49 995.2
20260510003023 19 252 11.3 22.5 0.00 0.00 0.00 49 995.3
20260510001517 19 264 12.9 25.7 0.00 0.00 0.00 49 995.1
20260510000019 19 237 8.0 22.5 0.00 0.00 0.00 51 995.2
20260509234515 18 209 9.7 27.4 0.00 0.00 0.00 50 995.2
20260509233013 18 279 12.9 24.1 0.00 0.00 0.00 50 995.1
20260509231512 18 259 9.7 20.9 0.00 0.00 0.00 51 995.3
20260509230010 18 255 9.7 27.4 0.00 0.00 0.00 51 995.1
20260509224508 18 267 9.7 25.7 0.00 0.00 0.00 51 995.2
20260509223005 18 245 12.9 27.4 0.00 0.00 0.00 51 995.0
20260509221504 17 264 8.0 20.9 0.00 0.00 0.00 53 995.2
20260509220001 17 230 8.0 17.7 0.00 0.00 0.00 55 995.2
20260509214608 17 276 9.7 17.7 0.00 0.00 0.00 55 995.2
20260509213057 16 267 6.4 17.7 0.00 0.00 0.00 56 995.4
20260509211558 16 269 4.8 11.3 0.00 0.00 0.00 59 995.3
20260509210107 15 243 4.8 14.5 0.00 0.00 0.00 59 995.4
20260509204551 15 264 1.6 11.3 0.00 0.00 0.00 61 995.2
20260509203043 14 259 4.8 8.0 0.00 0.00 0.00 64 995.2
20260509201548 13 279 0.0 8.0 0.00 0.00 0.00 66 994.9
20260509200045 12 270 1.6 6.4 0.00 0.00 0.00 70 994.9
20260509194537 12 252 1.6 6.4 0.00 0.00 0.00 68 994.7
20260509193036 12 267 0.0 4.8 0.00 0.00 0.00 68 994.8
20260509191536 12 268 1.6 6.4 0.00 0.00 0.00 68 994.8
20260509190037 12 282 3.2 8.0 0.00 0.00 0.00 68 994.5
20260509184535 12 246 4.8 8.0 0.00 0.00 0.00 70 994.4
20260509183033 11 246 3.2 6.4 0.00 0.00 0.00 71 994.2
20260509181530 11 255 0.0 4.8 0.00 0.00 0.00 71 994.3
20260509180030 11 239 3.2 6.4 0.00 0.00 0.00 71 994.2
20260509174528 12 235 3.2 8.0 0.00 0.00 0.00 68 994.0
20260509173027 12 254 4.8 9.7 0.00 0.00 0.00 67 994.1
20260509171535 12 252 4.8 9.7 0.00 0.00 0.00 68 994.2
20260509170030 12 245 3.2 8.0 0.00 0.03 0.00 67 994.1
20260509164525 12 256 3.2 11.3 0.00 0.03 0.00 68 994.1
20260509163025 11 254 4.8 8.0 0.00 0.03 0.00 69 994.3
20260509161523 12 271 3.2 8.0 0.00 0.03 0.00 67 994.3
20260509160023 12 269 4.8 11.3 0.00 0.05 0.00 68 994.2
20260509154520 12 250 6.4 11.3 0.00 0.05 0.00 68 994.3
20260509153017 12 228 6.4 14.5 0.00 0.05 0.00 67 994.0
20260509151516 12 271 8.0 14.5 0.00 0.05 0.00 67 994.1
20260509150019 11 247 6.4 9.7 0.00 0.05 0.00 68 994.4
20260509144518 11 241 4.8 8.0 0.00 0.05 0.00 68 994.6
20260509143009 12 262 3.2 9.7 0.00 0.05 0.00 66 994.9
20260509141510 12 267 6.4 17.7 0.00 0.05 0.00 66 994.9
20260509140008 12 264 6.4 11.3 0.00 0.05 0.00 66 994.9
20260509134510 12 269 6.4 14.5 0.00 0.05 0.00 65 995.0
20260509133004 12 271 6.4 14.5 0.00 0.05 0.00 64 995.0
20260509131502 13 244 8.0 19.3 0.00 0.05 0.00 63 994.8
20260509130059 13 259 8.0 25.7 0.00 0.05 0.00 63 994.7
20260509124558 12 257 8.0 19.3 0.00 0.05 0.00 64 994.8
20260509123055 13 226 11.3 20.9 0.00 0.05 0.00 62 994.6
20260509121553 12 278 9.7 19.3 0.00 0.05 0.00 65 994.6
20260509120049 12 229 9.7 17.7 0.00 0.08 0.05 66 994.4
20260509114548 12 241 6.4 11.3 0.00 0.08 0.05 65 994.6
20260509113051 12 245 4.8 12.9 0.00 0.08 0.05 66 994.8
20260509111546 11 260 11.3 19.3 0.00 0.08 0.05 68 994.6
20260509110044 11 264 3.2 6.4 0.00 0.10 0.05 70 995.2
20260509104544 11 268 1.6 8.0 0.00 0.10 0.05 69 995.1
20260509103042 12 238 3.2 11.3 0.00 0.10 0.05 68 995.1
20260509101550 12 260 1.6 8.0 0.00 0.10 0.05 68 995.1
20260509100041 12 269 3.2 9.7 0.00 0.10 0.05 66 995.1
20260509094540 12 244 3.2 14.5 0.00 0.10 0.05 64 995.0
20260509093036 12 229 8.0 17.7 0.00 0.10 0.05 64 994.9
20260509091533 12 251 8.0 16.1 0.00 0.10 0.05 65 995.1
20260509090031 11 249 6.4 11.3 0.00 0.10 0.05 69 995.3
20260509084530 11 241 1.6 11.3 0.00 0.10 0.05 70 995.3
20260509083028 11 248 0.0 4.8 0.00 0.10 0.05 70 995.2
20260509081531 11 257 0.0 3.2 0.00 0.10 0.05 70 995.1
20260509080024 12 246 1.6 4.8 0.00 0.64 0.05 69 995.1
20260509074523 12 245 0.0 6.4 0.00 0.64 0.05 69 995.1
20260509073019 12 248 3.2 11.3 0.00 0.64 0.05 69 995.1
20260509071518 13 249 4.8 9.7 0.00 0.64 0.05 69 995.0
20260509070016 13 260 3.2 11.3 0.00 1.40 0.05 69 995.1
20260509064515 13 259 1.6 9.7 0.00 1.40 0.05 70 995.0
20260509063013 13 255 3.2 11.3 0.00 1.40 0.05 69 994.8
20260509061511 13 252 4.8 17.7 0.00 1.40 0.05 69 994.8
20260509060010 14 252 8.0 22.5 0.00 1.91 0.05 69 994.5
20260509054508 14 246 6.4 19.3 0.00 1.91 0.05 69 994.5
20260509053006 14 235 6.4 17.7 0.00 1.91 0.05 69 994.4
20260509051504 15 264 8.0 12.9 0.00 1.91 0.05 67 994.3
20260509050004 15 272 4.8 9.7 0.00 2.54 0.05 65 994.5
20260509044504 16 218 4.8 11.3 0.00 2.54 0.05 63 994.4